SCP
0 0 0 0 0 0 0 0 0 0 0 0 0 0 0 0 0 0 0 0 0 0
0 0 0 0 0 0 0 0 0 0 0 0 0 0 0 0 0 0 0 0 0 0
0 0 0 0 0 0 0 0 0 0 0 0 0 0 0 0 0 0 0 0 0 0
0 0 0 0 0 0 0 0 0 0 0 0 0 0 0 0 0 0 0 0 0 0
0 0 0 0 0 0 0 0 0 0 0 0 0 0 0 0 0 0 0 0 0 0
0 0 0 0 0 0 0 0 0 0 0 0 0 0 0 0 0 0 0 0 0 0
0 0 0 0 0 0 0 0 0 0 0 0 0 0 0 0 0 0 0 0 0 0
0 0 0 0 0 0 0 0 0 0 0 0 0 0 0 0 0 0 0 0 0 0
0 0 0 0 0 0 0 0 0 0 0 0 0 0 0 0 0 0 0 0 0 0
0 0 0 0 0 0 0 0 0 0 0 0 0 0 0 0 0 0 0 0 0 0
0 0 0 0 0 0 0 0 0 0 0 0 0 0 0 0 0 0 0 0 0 0
0 0 0 0 0 0 0 0 0 0 0 0 0 0 0 0 0 0 0 0 0 0
0 0 0 0 0 0 0 0 0 0 0 0 0 0 0 0 0 0 0 0 0 0
0 0 0 0 0 0 0 0 0 0 0 0 0 0 0 0 0 0 0 0 0 0
Wind_Speed_500mb
82 81 78 74 70 67 64 59 52 51 47 42 37 33 31 32 28 27 28 29 31 32
91 91 88 84 78 75 70 67 61 58 53 49 45 41 38 38 35 34 35 35 37 38
100 98 95 92 90 86 82 74 70 65 61 56 52 48 45 43 41 41 41 42 42 42
109 107 104 102 97 94 88 82 78 73 69 63 59 54 51 48 46 46 45 46 47 48
115 113 113 112 106 101 98 91 86 80 74 69 64 59 55 52 50 50 50 50 50 51
125 121 121 120 114 110 107 100 92 88 81 75 69 64 60 56 54 54 53 52 53 54
132 133 129 126 121 118 115 106 100 94 85 78 72 67 64 60 58 56 55 53 56 57
134 137 135 130 127 123 121 112 103 98 89 82 76 72 69 64 60 58 56 55 55 57
115 123 128 134 133 127 123 115 106 101 94 86 81 75 70 64 61 58 56 56 55 56
102 112 119 124 127 131 129 120 111 104 95 88 83 75 68 64 62 59 57 56 56 56
89 98 103 110 118 122 128 128 115 104 93 86 82 74 69 64 61 58 56 57 55 55
78 85 92 102 109 111 113 118 115 101 91 83 78 72 67 61 59 57 55 53 51 52
65 72 82 92 101 105 104 106 108 97 86 80 74 70 65 61 56 54 52 48 48 49
69 68 68 81 91 98 94 97 97 92 85 78 72 67 63 58 52 49 46 46 44 45
Wind_Direction_500mb
231 231 231 233 234 235 238 240 240 240 239 241 244 249 256 262 268 276 279 282 284 288
234 234 233 235 235 237 237 239 239 241 242 242 245 248 253 260 266 268 273 277 281 282
237 237 237 237 237 237 239 237 238 239 242 243 246 248 251 258 263 266 272 276 278 281
240 239 239 239 239 239 239 239 239 240 242 242 244 246 249 255 261 266 271 271 274 281
243 242 241 241 240 240 240 239 240 240 241 241 242 245 248 253 258 262 267 272 272 278
245 243 243 243 242 241 240 239 239 239 239 240 241 243 247 251 255 258 265 268 271 276
248 249 246 245 243 243 242 239 239 240 239 240 241 243 246 249 253 257 262 266 270 275
255 253 250 246 245 243 242 241 239 240 239 238 239 241 244 249 252 255 261 266 269 274
259 253 249 249 246 243 242 241 238 237 237 236 237 240 244 247 249 254 259 263 267 272
260 255 251 250 247 244 241 240 237 235 234 235 237 239 240 243 247 252 258 261 266 271
266 258 253 246 243 241 243 239 235 232 232 232 236 236 237 240 245 251 255 260 266 271
279 266 256 246 243 239 235 237 234 228 228 228 231 232 235 240 245 250 255 261 267 272
290 272 263 255 245 238 232 234 234 222 220 224 226 229 233 238 243 249 257 262 268 276
295 279 268 257 247 237 226 227 230 215 214 216 220 226 232 239 244 250 256 264 271 278
Wind_Speed_850mb
82 81 78 74 70 67 64 59 52 51 47 42 37 33 31 32 28 27 28 29 31 32
91 91 88 84 78 75 70 67 61 58 53 49 45 41 38 38 35 34 35 35 37 38
100 98 95 92 90 86 82 74 70 65 61 56 52 48 45 43 41 41 41 42 42 42
109 107 104 102 97 94 88 82 78 73 69 63 59 54 51 48 46 46 45 46 47 48
115 113 113 112 106 101 98 91 86 80 74 69 64 59 55 52 50 50 50 50 50 51
125 121 121 120 114 110 107 100 92 88 81 75 69 64 60 56 54 54 53 52 53 54
132 133 129 126 121 118 115 106 100 94 85 78 72 67 64 60 58 56 55 53 56 57
134 137 135 130 127 123 121 112 103 98 89 82 76 72 69 64 60 58 56 55 55 57
115 123 128 134 133 127 123 115 106 101 94 86 81 75 70 64 61 58 56 56 55 56
102 112 119 124 127 131 129 120 111 104 95 88 83 75 68 64 62 59 57 56 56 56
89 98 103 110 118 122 128 128 115 104 93 86 82 74 69 64 61 58 56 57 55 55
78 85 92 102 109 111 113 118 115 101 91 83 78 72 67 61 59 57 55 53 51 52
65 72 82 92 101 105 104 106 108 97 86 80 74 70 65 61 56 54 52 48 48 49
69 68 68 81 91 98 94 97 97 92 85 78 72 67 63 58 52 49 46 46 44 45
Wind_Direction_850mb
231 231 231 233 234 235 238 240 240 240 239 241 244 249 256 262 268 276 279 282 284 288
234 234 233 235 235 237 237 239 239 241 242 242 245 248 253 260 266 268 273 277 281 282
237 237 237 237 237 237 239 237 238 239 242 243 246 248 251 258 263 266 272 276 278 281
240 239 239 239 239 239 239 239 239 240 242 242 244 246 249 255 261 266 271 271 274 281
243 242 241 241 240 240 240 239 240 240 241 241 242 245 248 253 258 262 267 272 272 278
245 243 243 243 242 241 240 239 239 239 239 240 241 243 247 251 255 258 265 268 271 276
248 249 246 245 243 243 242 239 239 240 239 240 241 243 246 249 253 257 262 266 270 275
255 253 250 246 245 243 242 241 239 240 239 238 239 241 244 249 252 255 261 266 269 274
259 253 249 249 246 243 242 241 238 237 237 236 237 240 244 247 249 254 259 263 267 272
260 255 251 250 247 244 241 240 237 235 234 235 237 239 240 243 247 252 258 261 266 271
266 258 253 246 243 241 243 239 235 232 232 232 236 236 237 240 245 251 255 260 266 271
279 266 256 246 243 239 235 237 234 228 228 228 231 232 235 240 245 250 255 261 267 272
290 272 263 255 245 238 232 234 234 222 220 224 226 229 233 238 243 249 257 262 268 276
295 279 268 257 247 237 226 227 230 215 214 216 220 226 232 239 244 250 256 264 271 278